Weather in Kazarkino

Russia / Kurgan Oblast     55°23′48″N   67°24′44″E
temp.,
°C
wind,
m/s
gust,
m/s
humid.,
%
clouds,
%
prec.,
mm/h
press.,
hPa
HPBL,
m
17 april, sat
sat1723:00+3ne511641 0.0 1026320
02:00+1ne48720 0.0 1027184
05:000e34760 0.0 102882
08:00+3sse23692 0.0 1028305
11:00+6sw22544 0.0 1026983
14:00+9wsw34435 0.0 10241550
17:00+10w56415 0.0 10221694
20:00+7wsw35565 0.0 102077
18 april, sun
sun1823:00+5wsw45685 0.0 101974
02:00+4w410785 0.0 1016188
05:00+3w5128317 0.0 1015266
08:00+5w713695 0.0 1013658
11:00+8nw9125799 0.0 10131754
14:00+3n101251100 0.3 10181354
17:00+2nne10114081 0.3 10221926
20:00−1nne810420 0.0 10261128
19 april, mon
mon1923:00−4nne710441 0.0 10291162
02:00−5nne78424 0.0 10311110
05:00−7nne68420 0.0 10331018
08:00−6nne68385 0.0 10341216
11:00−3nne573487 0.0 10351689
14:00−1n6730100 0.0 10342196
17:000n6732100 0.0 10332118
20:00−3nne34455 0.0 103476
20 april, tue
tue2023:00−4nne22485 0.0 103529
02:00−4n11475 0.0 103517
05:00−4nw22451 0.0 103536
08:00−1wnw34355 0.0 1035674
11:00+2wnw45305 0.0 10341339
14:00+5wnw673238 0.0 10321643
17:00+6wnw793574 0.0 10301732
20:00+3w485353 0.0 1029146
21 april, wed
wed2123:00+2wnw410645 0.0 1029163
02:00+1wnw511705 0.0 1028198
05:00+1wnw512745 0.0 1029208
08:00+5nw712615 0.0 1029502
11:00+9nw8115195 0.0 10291212
14:00+11nnw8104376 0.0 10301749
17:00+9nne785316 0.0 10311231
20:00+6ene47716 0.0 1034322